Time,TemperatureF,DewpointF,PressureIn,WindDirection,WindDirectionDegrees,WindSpeedMPH,WindSpeedGustMPH,Humidity,HourlyPrecipIn,Conditions,Clouds,dailyrainin,SolarRadiationWatts/m^2,SoftwareType,DateUTC
2013-08-25 00:00:00,77.0,66.0,-100.00,SSE,166,0.0,-999.0,70,0.00,,,0.00,0.000000,,2013-08-25 05:00:00,
2013-08-25 00:42:00,77.0,66.0,-100.00,SSE,166,0.0,-999.0,70,0.00,,,0.00,0.000000,,2013-08-25 05:42:00,
2013-08-25 00:52:00,77.0,66.0,-100.00,SSE,166,0.0,-999.0,70,0.00,,,0.00,0.000000,,2013-08-25 05:52:00,
2013-08-25 01:00:00,75.0,67.0,-100.00,ENE,68,0.0,-999.0,76,0.00,,,0.00,0.000000,,2013-08-25 06:00:00,
2013-08-25 01:43:00,75.0,67.0,-100.00,ENE,68,0.0,-999.0,76,0.00,,,0.00,0.000000,,2013-08-25 06:43:00,
2013-08-25 01:52:00,75.0,67.0,-100.00,ENE,68,0.0,-999.0,76,0.00,,,0.00,0.000000,,2013-08-25 06:52:00,
2013-08-25 02:00:00,74.0,66.0,-100.00,South,181,1.0,-999.0,77,0.00,,,0.00,0.000000,,2013-08-25 07:00:00,
2013-08-25 02:42:00,74.0,66.0,-100.00,South,181,1.0,-999.0,77,0.00,,,0.00,0.000000,,2013-08-25 07:42:00,
2013-08-25 02:52:00,74.0,66.0,-100.00,South,181,1.0,-999.0,77,0.00,,,0.00,0.000000,,2013-08-25 07:52:00,
2013-08-25 04:00:00,72.0,67.0,-100.00,South,169,1.0,-999.0,82,0.00,,,0.00,0.000000,,2013-08-25 09:00:00,
2013-08-25 04:44:00,72.0,67.0,-100.00,South,169,1.0,-999.0,82,0.00,,,0.00,0.000000,,2013-08-25 09:44:00,
2013-08-25 04:55:00,72.0,67.0,-100.00,South,169,1.0,-999.0,82,0.00,,,0.00,0.000000,,2013-08-25 09:55:00,
2013-08-25 05:00:00,70.0,66.0,-100.00,SSE,164,1.0,-999.0,88,0.00,,,0.00,0.000000,,2013-08-25 10:00:00,
2013-08-25 05:42:00,70.0,66.0,-100.00,SSE,164,1.0,-999.0,88,0.00,,,0.00,0.000000,,2013-08-25 10:42:00,
2013-08-25 05:53:00,70.0,66.0,-100.00,SSE,164,1.0,-999.0,88,0.00,,,0.00,0.000000,,2013-08-25 10:53:00,
2013-08-25 06:00:00,69.0,67.0,-100.00,SSE,150,1.0,-999.0,91,0.00,,,0.00,0.000000,,2013-08-25 11:00:00,
2013-08-25 06:42:00,69.0,67.0,-100.00,SSE,150,1.0,-999.0,91,0.00,,,0.00,0.000000,,2013-08-25 11:42:00,
2013-08-25 06:52:00,69.0,67.0,-100.00,SSE,150,1.0,-999.0,91,0.00,,,0.00,0.000000,,2013-08-25 11:52:00,
2013-08-25 07:00:00,70.0,66.0,-100.00,South,172,1.0,-999.0,88,0.00,,,0.00,0.000000,,2013-08-25 12:00:00,
2013-08-25 07:43:00,70.0,66.0,-100.00,South,172,1.0,-999.0,88,0.00,,,0.00,0.000000,,2013-08-25 12:43:00,
2013-08-25 07:52:00,70.0,66.0,-100.00,South,172,1.0,-999.0,88,0.00,,,0.00,0.000000,,2013-08-25 12:52:00,
2013-08-25 08:00:00,71.0,67.0,-100.00,South,174,1.0,-999.0,88,0.00,,,0.00,37.000000,,2013-08-25 13:00:00,
2013-08-25 08:42:00,71.0,67.0,-100.00,South,174,1.0,-999.0,88,0.00,,,0.00,37.000000,,2013-08-25 13:42:00,
2013-08-25 08:52:00,71.0,67.0,-100.00,South,174,1.0,-999.0,88,0.00,,,0.00,37.000000,,2013-08-25 13:52:00,
2013-08-25 09:00:00,78.0,69.0,-100.00,SE,130,0.0,-999.0,75,0.00,,,0.00,215.000000,,2013-08-25 14:00:00,
2013-08-25 09:42:00,78.0,69.0,-100.00,SE,130,0.0,-999.0,75,0.00,,,0.00,215.000000,,2013-08-25 14:42:00,
2013-08-25 09:52:00,78.0,69.0,-100.00,SE,130,0.0,-999.0,75,0.00,,,0.00,215.000000,,2013-08-25 14:52:00,
2013-08-25 10:00:00,82.0,68.0,-100.00,SSE,156,3.0,-999.0,63,0.00,,,0.00,419.000000,,2013-08-25 15:00:00,
2013-08-25 10:44:00,82.0,68.0,-100.00,SSE,156,3.0,-999.0,63,0.00,,,0.00,419.000000,,2013-08-25 15:44:00,
2013-08-25 10:55:00,82.0,68.0,-100.00,SSE,156,3.0,-999.0,63,0.00,,,0.00,419.000000,,2013-08-25 15:55:00,
2013-08-25 11:00:00,84.0,68.0,-100.00,SSE,164,4.0,-999.0,58,0.00,,,0.00,605.000000,,2013-08-25 16:00:00,
2013-08-25 11:44:00,84.0,68.0,-100.00,SSE,164,4.0,-999.0,58,0.00,,,0.00,605.000000,,2013-08-25 16:44:00,
2013-08-25 11:54:00,84.0,68.0,-100.00,SSE,164,4.0,-999.0,58,0.00,,,0.00,605.000000,,2013-08-25 16:54:00,
2013-08-25 12:00:00,87.0,67.0,-100.00,South,179,3.0,-999.0,52,0.00,,,0.00,758.000000,,2013-08-25 17:00:00,
2013-08-25 12:43:00,87.0,67.0,-100.00,South,179,3.0,-999.0,52,0.00,,,0.00,758.000000,,2013-08-25 17:43:00,
2013-08-25 12:53:00,87.0,67.0,-100.00,South,179,3.0,-999.0,52,0.00,,,0.00,758.000000,,2013-08-25 17:53:00,
2013-08-25 13:00:00,88.0,67.0,-100.00,South,184,4.0,-999.0,49,0.00,,,0.00,859.000000,,2013-08-25 18:00:00,
2013-08-25 13:43:00,88.0,67.0,-100.00,South,184,4.0,-999.0,49,0.00,,,0.00,859.000000,,2013-08-25 18:43:00,
2013-08-25 13:52:00,88.0,67.0,-100.00,South,184,4.0,-999.0,49,0.00,,,0.00,859.000000,,2013-08-25 18:52:00,
2013-08-25 14:00:00,91.0,65.0,-100.00,South,183,4.0,-999.0,43,-99.99,,,-99.99,740.000000,,2013-08-25 19:00:00,
2013-08-25 14:42:00,91.0,65.0,-100.00,South,183,4.0,-999.0,43,-99.99,,,-99.99,740.000000,,2013-08-25 19:42:00,
2013-08-25 14:53:00,91.0,65.0,-100.00,South,183,4.0,-999.0,43,-99.99,,,-99.99,740.000000,,2013-08-25 19:53:00,
2013-08-25 15:00:00,91.0,64.0,-100.00,SSE,147,2.0,-999.0,41,0.00,,,-99.99,839.000000,,2013-08-25 20:00:00,
2013-08-25 15:43:00,91.0,64.0,-100.00,SSE,147,2.0,-999.0,41,0.00,,,-99.99,839.000000,,2013-08-25 20:43:00,
2013-08-25 15:53:00,91.0,64.0,-100.00,SSE,147,2.0,-999.0,41,0.00,,,-99.99,839.000000,,2013-08-25 20:53:00,
2013-08-25 16:00:00,92.0,63.0,-100.00,South,182,4.0,-999.0,38,0.00,,,-99.99,458.000000,,2013-08-25 21:00:00,
2013-08-25 16:43:00,92.0,63.0,-100.00,South,182,4.0,-999.0,38,0.00,,,-99.99,458.000000,,2013-08-25 21:43:00,
2013-08-25 16:55:00,92.0,63.0,-100.00,South,182,4.0,-999.0,38,0.00,,,-99.99,458.000000,,2013-08-25 21:55:00,
2013-08-25 17:00:00,92.0,64.0,-100.00,SE,144,2.0,-999.0,40,0.00,,,-99.99,564.000000,,2013-08-25 22:00:00,
2013-08-25 17:43:00,92.0,64.0,-100.00,SE,144,2.0,-999.0,40,0.00,,,-99.99,564.000000,,2013-08-25 22:43:00,
2013-08-25 17:53:00,92.0,64.0,-100.00,SE,144,2.0,-999.0,40,0.00,,,-99.99,564.000000,,2013-08-25 22:53:00,
2013-08-25 18:00:00,91.0,64.0,-100.00,SSE,159,3.0,-999.0,41,0.00,,,-99.99,496.000000,,2013-08-25 23:00:00,
2013-08-25 18:43:00,91.0,64.0,-100.00,SSE,159,3.0,-999.0,41,0.00,,,-99.99,496.000000,,2013-08-25 23:43:00,
2013-08-25 18:53:00,91.0,64.0,-100.00,SSE,159,3.0,-999.0,41,0.00,,,-99.99,496.000000,,2013-08-25 23:53:00,
2013-08-25 19:00:00,90.0,62.0,-100.00,SSE,158,2.0,-999.0,40,0.00,,,-99.99,289.000000,,2013-08-26 00:00:00,
2013-08-25 19:42:00,90.0,62.0,-100.00,SSE,158,2.0,-999.0,40,0.00,,,-99.99,289.000000,,2013-08-26 00:42:00,
2013-08-25 19:52:00,90.0,62.0,-100.00,SSE,158,2.0,-999.0,40,0.00,,,-99.99,289.000000,,2013-08-26 00:52:00,
2013-08-25 20:00:00,88.0,67.0,-100.00,SE,139,1.0,-999.0,51,0.00,,,-99.99,99.000000,,2013-08-26 01:00:00,
2013-08-25 20:42:00,88.0,67.0,-100.00,SE,139,1.0,-999.0,51,0.00,,,-99.99,99.000000,,2013-08-26 01:42:00,
2013-08-25 20:52:00,88.0,67.0,-100.00,SE,139,1.0,-999.0,51,0.00,,,-99.99,99.000000,,2013-08-26 01:52:00,
2013-08-25 21:00:00,82.0,69.0,-100.00,SE,143,1.0,-999.0,64,0.00,,,-99.99,2.000000,,2013-08-26 02:00:00,
2013-08-25 21:42:00,82.0,69.0,-100.00,SE,143,1.0,-999.0,64,0.00,,,-99.99,2.000000,,2013-08-26 02:42:00,
2013-08-25 21:52:00,82.0,69.0,-100.00,SE,143,1.0,-999.0,64,0.00,,,-99.99,2.000000,,2013-08-26 02:52:00,
2013-08-25 22:00:00,79.0,69.0,-100.00,SSE,167,1.0,-999.0,70,0.00,,,-99.99,0.000000,,2013-08-26 03:00:00,
2013-08-25 22:44:00,79.0,69.0,-100.00,SSE,167,1.0,-999.0,70,0.00,,,-99.99,0.000000,,2013-08-26 03:44:00,
2013-08-25 22:56:00,79.0,69.0,-100.00,SSE,167,1.0,-999.0,70,0.00,,,-99.99,0.000000,,2013-08-26 03:56:00,
2013-08-25 23:00:00,76.0,70.0,-100.00,SSE,150,1.0,-999.0,80,0.00,,,-99.99,0.000000,,2013-08-26 04:00:00,
2013-08-25 23:44:00,76.0,70.0,-100.00,SSE,150,1.0,-999.0,80,0.00,,,-99.99,0.000000,,2013-08-26 04:44:00,
2013-08-25 23:53:00,76.0,70.0,-100.00,SSE,150,1.0,-999.0,80,0.00,,,-99.99,0.000000,,2013-08-26 04:53:00,